Voltar ao catálogo

OV1-4

AtivoMilitarLEO
NORAD 2121·PAYLOAD·🇺🇸 United States

Lançado Mar 30, 1966 de Vandenberg Space Force Base

Loading…

Próximas Passagens (próximas 24 horas)

TLE

AtualizadoSource: Space-Track

Época: Sep 13, 2026, 23:22 UTC

1 02121U 66025A   26256.97399275  .00000290  00000-0  19811-4 0  9992
2 02121 144.5042  90.0338 0083768 279.2994  79.8223 13.87334454 63478

Acompanhe OV1-4 em tempo real com AllMySat

Download on the App Store